Regional Weather Roundup
Issued by NWS Cleveland, OH

Home | Current Version | Previous Version | Text Only | Print | Product List | Glossary Off
Versions: 1 2 3 4 5 6 7 8 9 10 11 12 13 14 15 16 17 18 19 20 21 22 23 24 25 26 27 28 29 30 31 32 33 34 35 36 37 38 39 40 41 42 43 44 45 46 47 48 49 50

000
ASUS41 KCLE 061500
RWRCLE
OHIO REGIONAL WEATHER ROUNDUP
NATIONAL WEATHER SERVICE WILMINGTON, OH
1000 AM EST FRI MAR 06 2015

NOTE: "FAIR" INDICATES FEW OR NO CLOUDS BELOW 12,000 FEET WITH NO
SIGNIFICANT WEATHER AND/OR OBSTRUCTIONS TO VISIBILITY.

OHZ001>008-015>018-024>027-034-035-043-044-061600-
   NORTHWEST OHIO

CITY           SKY/WX    TMP DP  RH WIND       PRES   REMARKS
DEFIANCE       SUNNY     10   2  69 SW7       30.51F WCI  -1
FINDLAY        SUNNY     12   6  77 S9        30.51S WCI   0
TOLEDO EXPRESS SUNNY     14   5  67 S14       30.50F WCI  -1
TOLEDO EXEC    SUNNY     12   5  73 SW9       30.52F WCI   0
LIMA           SUNNY     13   5  70 SW8       30.51R WCI   2
$$

OHZ009>014-019>023-028>033-038-089-061600-
   NORTHEAST OHIO

CITY           SKY/WX    TMP DP  RH WIND       PRES   REMARKS
CLE-HOPKINS    MOSUNNY   14   5  67 SW10      30.54S WCI   1
CLE-LAKEFRONT  SUNNY     17   6  62 SW8       30.52S WCI   7
CUY CO. ARPT   SUNNY     18   7  62 SW15      30.51S WCI   3
LORAIN-ELYRIA  SUNNY     13   7  77 SW10      30.51F WCI   0
ASHTABULA      SUNNY     10   1  67 S7        30.50F WCI  -1
AKRON-CANTON   SUNNY     13   3  64 SW9       30.50R WCI   1
WOOSTER        NOT AVBL
MANSFIELD      SUNNY     15   7  70 S12       30.48S WCI   2
YOUNGSTOWN     SUNNY     13   4  67 VRB6      30.49S WCI   4
$$

OHZ042-051>053-060>062-070>072-077>081-061600-
  SOUTHWEST OHIO

CITY           SKY/WX    TMP DP  RH WIND       PRES   REMARKS
CINC-COVINGTON MOSUNNY   16   6  65 S6        30.56R WCI   7
CINC-LUNKEN    SUNNY     14 N/A N/A CALM      30.61S
HAMILTON       SUNNY     16  10  77 CALM      30.59R
DAYTON         NOT AVBL
WRIGHT-PAT AFB NOT AVBL
DAYTON GENERAL SUNNY     16   6  65 S8        30.54R WCI   5
WILMINGTON     SUNNY     15   5  64 S7        30.54R WCI   5
$$

OHZ036-037-039>041-045>050-054>059-063>069-073>076-082>088-061600-
  CENTRAL AND SOUTHEAST OHIO

CITY           SKY/WX    TMP DP  RH WIND       PRES   REMARKS
COLUMBUS       MOSUNNY   14   4  64 SW7       30.56R WCI   4
OSU AIRPORT    SUNNY     16   5  62 S10       30.54S WCI   4
BOLTON FIELD   SUNNY     16   7  67 S7        30.55S WCI   6
RICKENBACK AFB NOT AVBL
NEWARK         SUNNY     13   4  67 S8        30.55S WCI   2
MARION         SUNNY     13   7  77 S8        30.52S WCI   2
LANCASTER      SUNNY     11   7  84 CALM      30.56R
ZANESVILLE     SUNNY     10   3  73 S6        30.55S WCI   0
NEW PHILLY     SUNNY     13   4  67 CALM      30.55S
$$



USA.gov is the U.S. government's official web portal to all federal, state and local government web resources and services.